| time (UTC) | temp C | wind direction | speed KPH | gust KPH | rain 1hr cm | rain 24hr cm | rain mn cm | humidity % | barometer mb |
| 20260508142343 | 12 | 248 | 0.0 | 3.2 | 0.00 | 0.00 | 0.00 | 73 | 998.9 |
| 20260508141900 | 12 | 248 | 0.0 | 3.2 | 0.00 | 0.00 | 0.00 | 73 | 998.9 |
| 20260508141331 | 12 | 248 | 0.0 | 9.7 | 0.00 | 0.00 | 0.00 | 76 | 998.9 |
| 20260508140824 | 12 | 248 | 3.2 | 9.7 | 0.00 | 0.00 | 0.00 | 77 | 999.0 |
| 20260508140338 | 12 | 220 | 0.0 | 3.2 | 0.00 | 0.00 | 0.00 | 76 | 999.0 |
| 20260508135831 | 12 | 220 | 0.0 | 6.4 | 0.00 | 0.00 | 0.00 | 78 | 999.0 |
| 20260508135323 | 12 | 220 | 0.0 | 9.7 | 0.00 | 0.00 | 0.00 | 76 | 999.0 |
| 20260508134906 | 12 | 219 | 0.0 | 9.7 | 0.00 | 0.00 | 0.00 | 80 | 999.0 |
| 20260508134356 | 12 | 217 | 1.6 | 9.7 | 0.00 | 0.00 | 0.00 | 84 | 999.0 |
| 20260508133829 | 11 | 265 | 0.0 | 6.4 | 0.00 | 0.00 | 0.00 | 83 | 999.0 |
| 20260508133324 | 11 | 284 | 0.0 | 6.4 | 0.00 | 0.00 | 0.00 | 84 | 999.0 |
| 20260508132821 | 11 | 294 | 0.0 | 3.2 | 0.00 | 0.00 | 0.00 | 85 | 999.0 |
| 20260508132343 | 11 | 294 | 1.6 | 6.4 | 0.00 | 0.00 | 0.00 | 85 | 998.9 |
| 20260508131856 | 11 | 292 | 0.0 | 6.4 | 0.00 | 0.00 | 0.00 | 86 | 998.9 |
| 20260508131346 | 11 | 313 | 1.6 | 6.4 | 0.00 | 0.00 | 0.00 | 89 | 999.0 |
| 20260508130823 | 10 | 313 | 0.0 | 9.7 | 0.00 | 0.00 | 0.00 | 91 | 999.1 |
| 20260508130333 | 10 | 312 | 3.2 | 9.7 | 0.00 | 0.00 | 0.00 | 91 | 999.1 |
| 20260508125830 | 10 | 315 | 1.6 | 6.4 | 0.00 | 0.00 | 0.00 | 95 | 999.1 |
| 20260508125342 | 10 | 315 | 0.0 | 9.7 | 0.00 | 0.00 | 0.00 | 100 | 999.1 |
| 20260508124855 | 10 | 316 | 3.2 | 9.7 | 0.00 | 0.00 | 0.00 | 100 | 999.1 |
| 20260508124328 | 9 | 316 | 0.0 | 3.2 | 0.00 | 0.00 | 0.00 | 100 | 999.0 |
| 20260508123823 | 8 | 316 | 0.0 | 6.4 | 0.00 | 0.00 | 0.00 | 100 | 999.0 |
| 20260508123337 | 8 | 316 | 0.0 | 9.7 | 0.00 | 0.00 | 0.00 | 100 | 999.0 |
| 20260508122851 | 8 | 316 | 1.6 | 9.7 | 0.00 | 0.00 | 0.00 | 100 | 999.0 |
| 20260508122324 | 8 | 294 | 0.0 | 6.4 | 0.00 | 0.00 | 0.00 | 100 | 999.2 |
| 20260508121908 | 8 | 294 | 1.6 | 6.4 | 0.00 | 0.00 | 0.00 | 100 | 999.2 |
| 20260508121341 | 8 | 294 | 0.0 | 6.4 | 0.00 | 0.00 | 0.00 | 100 | 999.2 |
| 20260508120836 | 8 | 294 | 0.0 | 6.4 | 0.00 | 0.00 | 0.00 | 100 | 999.1 |
| 20260508120348 | 8 | 294 | 0.0 | 3.2 | 0.00 | 0.00 | 0.00 | 100 | 999.1 |
| 20260508115824 | 8 | 294 | 0.0 | 3.2 | 0.00 | 0.00 | 0.00 | 100 | 999.1 |
| 20260508115340 | 8 | 294 | 0.0 | 9.7 | 0.00 | 0.00 | 0.00 | 100 | 999.1 |
| 20260508114856 | 8 | 289 | 1.6 | 11.3 | 0.00 | 0.00 | 0.00 | 100 | 999.1 |
| 20260508114326 | 8 | 295 | 0.0 | 11.3 | 0.00 | 0.00 | 0.00 | 100 | 999.1 |
| 20260508113819 | 7 | 285 | 3.2 | 9.7 | 0.00 | 0.00 | 0.00 | 100 | 999.1 |
| 20260508113403 | 7 | 282 | 4.8 | 9.7 | 0.00 | 0.00 | 0.00 | 100 | 999.1 |
| 20260508112905 | 7 | 257 | 0.0 | 0.0 | 0.00 | 0.00 | 0.00 | 100 | 999.1 |
| 20260508020821 | 9 | 256 | 0.0 | 0.0 | 0.03 | 0.00 | 2.41 | 100 | 999.5 |
| 20260508020335 | 9 | 256 | 0.0 | 0.0 | 0.03 | 0.00 | 2.41 | 100 | 999.5 |
| 20260508015828 | 9 | 256 | 0.0 | 0.0 | 0.03 | 0.00 | 2.41 | 100 | 999.5 |
| 20260508015342 | 9 | 256 | 0.0 | 0.0 | 0.03 | 0.00 | 2.41 | 100 | 999.6 |
| 20260508014859 | 9 | 256 | 0.0 | 0.0 | 0.03 | 0.00 | 2.41 | 100 | 999.6 |
| 20260508014333 | 9 | 256 | 0.0 | 0.0 | 0.05 | 0.00 | 2.41 | 100 | 999.6 |
| 20260508013825 | 9 | 256 | 0.0 | 0.0 | 0.05 | 0.00 | 2.41 | 100 | 999.7 |
| 20260508013339 | 9 | 256 | 0.0 | 0.0 | 0.05 | 0.00 | 2.41 | 100 | 999.7 |
| 20260508012856 | 9 | 256 | 0.0 | 0.0 | 0.05 | 0.00 | 2.41 | 100 | 999.7 |
| 20260508012331 | 9 | 256 | 0.0 | 0.0 | 0.03 | 0.00 | 2.39 | 100 | 999.6 |
| 20260508011846 | 10 | 256 | 0.0 | 0.0 | 0.03 | 0.00 | 2.39 | 100 | 999.6 |
| 20260508011338 | 10 | 256 | 0.0 | 0.0 | 0.03 | 0.00 | 2.39 | 100 | 999.6 |
| 20260508010831 | 10 | 256 | 0.0 | 0.0 | 0.05 | 0.00 | 2.39 | 100 | 999.3 |
| 20260508010326 | 10 | 256 | 0.0 | 0.0 | 0.05 | 0.00 | 2.39 | 100 | 999.3 |
| 20260508005839 | 10 | 256 | 0.0 | 0.0 | 0.05 | 0.00 | 2.39 | 100 | 999.3 |
| 20260508005352 | 10 | 256 | 0.0 | 0.0 | 0.05 | 0.00 | 2.39 | 100 | 999.1 |
| 20260508004846 | 10 | 256 | 0.0 | 0.0 | 0.05 | 0.00 | 2.39 | 100 | 999.1 |
| 20260508004339 | 10 | 256 | 0.0 | 0.0 | 0.03 | 0.00 | 2.36 | 100 | 999.1 |
| 20260508003854 | 10 | 256 | 0.0 | 0.0 | 0.05 | 0.00 | 2.36 | 100 | 998.9 |
| 20260508003329 | 10 | 256 | 0.0 | 0.0 | 0.05 | 0.00 | 2.36 | 100 | 998.9 |
| 20260508002823 | 10 | 256 | 0.0 | 0.0 | 0.05 | 0.00 | 2.36 | 100 | 998.9 |
| 20260508002331 | 10 | 256 | 0.0 | 0.0 | 0.05 | 0.00 | 2.36 | 100 | 998.6 |
| 20260508001846 | 10 | 256 | 0.0 | 0.0 | 0.05 | 0.00 | 2.36 | 100 | 998.6 |
| 20260508001337 | 10 | 256 | 0.0 | 0.0 | 0.05 | 0.00 | 2.36 | 100 | 998.6 |
| 20260508000852 | 10 | 256 | 0.0 | 0.0 | 0.05 | 0.00 | 2.36 | 100 | 998.7 |
| 20260508000322 | 10 | 256 | 0.0 | 0.0 | 0.03 | 0.00 | 2.34 | 100 | 998.7 |
| 20260507235837 | 11 | 256 | 0.0 | 0.0 | 0.05 | 0.00 | 2.34 | 100 | 998.7 |
| 20260507235331 | 11 | 256 | 0.0 | 0.0 | 0.05 | 0.00 | 2.34 | 100 | 998.7 |
| 20260507234845 | 11 | 256 | 0.0 | 1.6 | 0.05 | 0.00 | 2.34 | 100 | 998.7 |
| 20260507234338 | 11 | 256 | 0.0 | 1.6 | 0.05 | 0.00 | 2.34 | 100 | 998.7 |
| 20260507233830 | 11 | 256 | 0.0 | 0.0 | 0.05 | 0.00 | 2.31 | 100 | 998.7 |
| 20260507233344 | 11 | 256 | 0.0 | 0.0 | 0.05 | 0.00 | 2.31 | 100 | 998.7 |
| 20260507232835 | 11 | 256 | 0.0 | 0.0 | 0.05 | 0.00 | 2.31 | 100 | 998.7 |
| 20260507232329 | 11 | 256 | 0.0 | 0.0 | 0.05 | 0.00 | 2.31 | 100 | 998.6 |
| 20260507231845 | 11 | 256 | 0.0 | 1.6 | 0.05 | 0.00 | 2.31 | 100 | 998.6 |
| 20260507231336 | 11 | 256 | 0.0 | 6.4 | 0.08 | 0.00 | 2.31 | 100 | 998.6 |
| 20260507230830 | 11 | 256 | 0.0 | 6.4 | 0.08 | 0.00 | 2.31 | 100 | 998.4 |
| 20260507230323 | 11 | 219 | 0.0 | 1.6 | 0.08 | 0.00 | 2.31 | 100 | 998.4 |
| 20260507225836 | 11 | 217 | 0.0 | 0.0 | 0.08 | 0.00 | 2.29 | 100 | 998.4 |
| 20260507225330 | 11 | 217 | 0.0 | 0.0 | 0.08 | 0.00 | 2.29 | 100 | 998.4 |
| 20260507224928 | 11 | 217 | 0.0 | 0.0 | 0.08 | 0.00 | 2.29 | 100 | 998.4 |
| 20260507224340 | 11 | 217 | 0.0 | 0.0 | 0.08 | 0.00 | 2.29 | 100 | 998.4 |
| 20260507223834 | 11 | 217 | 0.0 | 0.0 | 0.08 | 0.00 | 2.26 | 100 | 998.4 |
| 20260507223325 | 11 | 217 | 0.0 | 0.0 | 0.08 | 0.00 | 2.26 | 100 | 998.4 |
| 20260507222841 | 11 | 217 | 0.0 | 0.0 | 0.10 | 0.00 | 2.26 | 100 | 998.4 |
| 20260507222335 | 11 | 217 | 0.0 | 0.0 | 0.10 | 0.00 | 2.26 | 100 | 998.4 |
| 20260507221850 | 11 | 217 | 0.0 | 0.0 | 0.10 | 0.00 | 2.26 | 100 | 998.4 |
| 20260507221321 | 11 | 217 | 0.0 | 0.0 | 0.08 | 0.00 | 2.24 | 100 | 998.4 |
| 20260507220901 | 11 | 217 | 0.0 | 0.0 | 0.08 | 0.00 | 2.24 | 100 | 998.6 |
| 20260507220334 | 11 | 217 | 0.0 | 1.6 | 0.10 | 0.00 | 2.24 | 100 | 998.6 |
| 20260507215828 | 11 | 217 | 0.0 | 6.4 | 0.08 | 0.00 | 2.21 | 100 | 998.6 |
| 20260507215322 | 11 | 217 | 0.0 | 6.4 | 0.10 | 0.00 | 2.21 | 100 | 998.4 |
| 20260507214905 | 11 | 217 | 1.6 | 6.4 | 0.10 | 0.00 | 2.21 | 100 | 998.4 |
| 20260507214337 | 11 | 217 | 0.0 | 3.2 | 0.10 | 0.00 | 2.21 | 100 | 998.4 |
| 20260507213831 | 11 | 217 | 0.0 | 3.2 | 0.10 | 0.00 | 2.18 | 100 | 998.4 |
| 20260507213325 | 11 | 219 | 0.0 | 6.4 | 0.10 | 0.00 | 2.18 | 100 | 998.4 |
| 20260507212837 | 11 | 217 | 0.0 | 6.4 | 0.13 | 0.00 | 2.18 | 100 | 998.4 |
| 20260507212331 | 11 | 217 | 0.0 | 6.4 | 0.10 | 0.00 | 2.16 | 100 | 998.4 |
| 20260507211847 | 11 | 217 | 1.6 | 6.4 | 0.13 | 0.00 | 2.16 | 100 | 998.4 |
| 20260507211342 | 11 | 217 | 0.0 | 6.4 | 0.13 | 0.00 | 2.16 | 100 | 998.4 |
| 20260507210834 | 11 | 217 | 0.0 | 6.4 | 0.15 | 0.00 | 2.16 | 100 | 998.4 |
| 20260507210327 | 11 | 223 | 0.0 | 6.4 | 0.13 | 0.00 | 2.13 | 100 | 998.4 |
| 20260507205822 | 11 | 226 | 3.2 | 6.4 | 0.13 | 0.00 | 2.13 | 100 | 998.4 |
| 20260507205332 | 11 | 226 | 1.6 | 6.4 | 0.13 | 0.00 | 2.11 | 100 | 998.6 |
| 20260507204847 | 10 | 226 | 1.6 | 9.7 | 0.15 | 0.00 | 2.11 | 100 | 998.6 |
| 20260507204343 | 10 | 226 | 3.2 | 9.7 | 0.15 | 0.00 | 2.11 | 100 | 998.6 |
| 20260507203856 | 10 | 230 | 0.0 | 9.7 | 0.13 | 0.00 | 2.08 | 100 | 998.5 |
| 20260507203328 | 10 | 160 | 4.8 | 6.4 | 0.15 | 0.00 | 2.08 | 100 | 998.5 |
| 20260507202843 | 11 | 154 | 0.0 | 6.4 | 0.15 | 0.00 | 2.06 | 100 | 998.5 |
| 20260507202336 | 11 | 154 | 3.2 | 6.4 | 0.15 | 0.00 | 2.06 | 100 | 998.5 |
| 20260507201918 | 11 | 154 | 3.2 | 9.7 | 0.15 | 0.00 | 2.03 | 100 | 998.5 |
| 20260507201331 | 11 | 210 | 1.6 | 9.7 | 0.18 | 0.00 | 2.03 | 100 | 998.5 |
| 20260507200825 | 11 | 216 | 0.0 | 6.4 | 0.15 | 0.00 | 2.01 | 100 | 998.5 |
| 20260507200338 | 11 | 215 | 1.6 | 6.4 | 0.81 | 0.00 | 2.01 | 100 | 998.5 |
| 20260507195830 | 11 | 213 | 1.6 | 6.4 | 0.81 | 0.00 | 2.01 | 100 | 998.5 |
| 20260507195345 | 10 | 213 | 1.6 | 11.3 | 0.79 | 0.00 | 1.98 | 100 | 998.5 |
| 20260507194859 | 10 | 212 | 1.6 | 11.3 | 0.79 | 0.00 | 1.98 | 100 | 998.5 |
| 20260507194332 | 10 | 223 | 0.0 | 6.4 | 0.76 | 0.00 | 1.96 | 100 | 998.5 |
| 20260507193826 | 10 | 223 | 3.2 | 9.7 | 0.76 | 0.00 | 1.96 | 100 | 998.9 |
| 20260507193338 | 10 | 206 | 1.6 | 9.7 | 0.74 | 0.00 | 1.93 | 100 | 998.9 |
| 20260507192831 | 10 | 224 | 0.0 | 6.4 | 0.71 | 0.00 | 1.91 | 100 | 998.9 |
| 20260507192345 | 10 | 224 | 3.2 | 11.3 | 0.71 | 0.00 | 1.91 | 100 | 998.9 |
| 20260507191857 | 10 | 213 | 4.8 | 11.3 | 0.69 | 0.00 | 1.88 | 100 | 998.9 |
| 20260507191327 | 10 | 220 | 3.2 | 12.9 | 0.66 | 0.00 | 1.85 | 100 | 998.9 |
| 20260507190842 | 10 | 230 | 6.4 | 12.9 | 0.66 | 0.00 | 1.85 | 100 | 998.9 |
| 20260507190358 | 10 | 205 | 0.0 | 0.0 | 0.64 | 0.00 | 1.83 | 100 | 998.9 |
| 20260507163335 | 9 | 110 | 1.6 | 6.4 | 0.33 | 0.00 | 1.17 | 100 | 999.9 |
| 20260507162826 | 8 | 110 | 0.0 | 0.0 | 0.36 | 0.00 | 1.14 | 100 | 999.9 |
| 20260507162343 | 8 | 110 | 0.0 | 3.2 | 0.36 | 0.00 | 1.12 | 100 | 1000.0 |
| 20260507161922 | 8 | 110 | 0.0 | 6.4 | 0.36 | 0.00 | 1.09 | 100 | 1000.0 |
| 20260507161332 | 8 | 109 | 0.0 | 9.7 | 0.33 | 0.00 | 1.04 | 100 | 999.9 |
| 20260507160827 | 8 | 110 | 3.2 | 11.3 | 0.33 | 0.00 | 1.02 | 100 | 1000.9 |
| 20260507160402 | 8 | 141 | 0.0 | 11.3 | 0.30 | 0.00 | 0.99 | 100 | 1000.9 |
| 20260507155856 | 8 | 198 | 0.0 | 3.2 | 0.30 | 0.00 | 0.97 | 100 | 1000.9 |
| 20260507155346 | 8 | 198 | 0.0 | 11.3 | 0.28 | 0.00 | 0.94 | 100 | 1001.0 |
| 20260507154901 | 8 | 196 | 1.6 | 12.9 | 0.28 | 0.00 | 0.91 | 100 | 1001.0 |
| 20260507154354 | 8 | 253 | 4.8 | 12.9 | 0.28 | 0.00 | 0.89 | 100 | 1001.0 |
| 20260507153826 | 8 | 232 | 0.0 | 12.9 | 0.25 | 0.00 | 0.86 | 100 | 1001.0 |
| 20260507153337 | 9 | 232 | 4.8 | 12.9 | 0.23 | 0.00 | 0.84 | 100 | 1001.0 |
| 20260507152850 | 9 | 250 | 1.6 | 14.5 | 0.23 | 0.00 | 0.81 | 100 | 1001.0 |
| 20260507152322 | 9 | 251 | 4.8 | 17.7 | 0.20 | 0.00 | 0.76 | 100 | 1001.3 |
| 20260507151902 | 10 | 263 | 9.7 | 17.7 | 0.18 | 0.00 | 0.74 | 100 | 1001.3 |
| 20260507151356 | 10 | 292 | 8.0 | 17.7 | 0.15 | 0.00 | 0.71 | 100 | 1001.3 |
| 20260507150832 | 10 | 241 | 8.0 | 24.1 | 0.13 | 0.00 | 0.69 | 100 | 1001.4 |
| 20260507150344 | 10 | 240 | 9.7 | 24.1 | 0.15 | 0.00 | 0.69 | 100 | 1001.4 |
| 20260507145836 | 10 | 253 | 6.4 | 16.1 | 0.15 | 0.00 | 0.66 | 100 | 1001.4 |
| 20260507145329 | 10 | 189 | 4.8 | 14.5 | 0.15 | 0.00 | 0.66 | 100 | 1001.8 |
| 20260507144841 | 10 | 256 | 6.4 | 16.1 | 0.13 | 0.00 | 0.64 | 100 | 1001.8 |
| 20260507144338 | 10 | 223 | 6.4 | 20.9 | 0.13 | 0.00 | 0.64 | 100 | 1001.8 |
| 20260507143831 | 10 | 270 | 9.7 | 20.9 | 0.10 | 0.00 | 0.61 | 100 | 1001.6 |
| 20260507143328 | 10 | 219 | 9.7 | 17.7 | 0.10 | 0.00 | 0.61 | 100 | 1001.6 |
| 20260507142822 | 10 | 219 | 9.7 | 16.1 | 0.08 | 0.00 | 0.58 | 100 | 1001.6 |